Weather History for Quakertown, PA

Change the Weather History Date:

Tuesday, August 19, 2014

  Actual Average (KABE) Record (KABE)
Temperature  
Mean Temperature 68 °F 72 °F  
Max Temperature 82 °F 82 °F 93 °F (1937)
Min Temperature 53 °F 61 °F 48 °F (1963)
Degree Days  
Heating Degree Days 0 0  
Month to date heating degree days 0  
Since 1 June heating degree days 36  
Since 1 July heating degree days 3  
Cooling Degree Days 2 7  
Month to date cooling degree days 145  
Year to date cooling degree days 610  
Since 1 June cooling degree days 565  
Growing Degree Days 18 (Base 50)    
Moisture  
Dew Point 58 °F    
Average Humidity 70    
Maximum Humidity 100    
Minimum Humidity 42    
Precipitation  
Precipitation 0.00 in 0.12 in 0.79 in (1932)
Month to date precipitation 2.42  
Year to date precipitation 28.50  
Snow  
Snow 0.00 in 0.00 in 0.00 in (2002)
Month to date snowfall 0.0  
Since 1 June snowfall 0.0  
Since 1 July snowfall 0.0  
Snow Depth -    
Sea Level Pressure  
Sea Level Pressure 29.91 in    
Wind  
Wind Speed 0 mph (North)    
Max Wind Speed 0 mph    
Max Gust Speed -    
Visibility 10 miles    
Events      
T = Trace of Precipitation, MM = Missing Value Source: NWS Daily Summary

Daily Weather History Graph

Daily Weather History Graph

Search for Another Location

Airport:

Trip Planner

Search our weather history database for the weather conditions in past years. The results will help you decide how hot, cold, wet, or windy it might be!

Date:

Astronomy

Aug. 19, 2014 Rise Set
Actual Time 6:16 AM EDT 7:53 PM EDT
Civil Twilight 5:47 AM EDT 8:22 PM EDT
Nautical Twilight 5:12 AM EDT 8:56 PM EDT
Astronomical Twilight 4:35 AM EDT 9:33 PM EDT
Moon 1:06 AM EDT (8/19) 3:48 PM EDT (8/19)
Length of Visible Light 14h 34m
Length of Day
13h 37m
Waning Crescent, 29% of the Moon is Illuminated
Aug 19
Waning Crescent
Aug 25
New
Sep 2
First Quarter
Sep 8
Full
Sep 15
Last Quarter

Hourly Weather History & Observations

Time (EDT) Temp. Heat Index Dew Point Humidity Pressure Visibility Wind Dir Wind Speed Gust Speed Precip Events Conditions
12:15 AM 60.8 °F - 59.0 °F 94% 29.90 in 10.0 mi Calm Calm - N/A   Clear
12:35 AM 60.8 °F - 57.2 °F 88% 29.90 in 10.0 mi Calm Calm - N/A   Clear
12:55 AM 59.0 °F - 57.2 °F 94% 29.89 in 10.0 mi Calm Calm - N/A   Partly Cloudy
1:15 AM 59.0 °F - 57.2 °F 94% 29.89 in 10.0 mi Calm Calm - N/A   Clear
1:35 AM 59.0 °F - 57.2 °F 94% 29.89 in 10.0 mi Calm Calm - N/A   Clear
1:55 AM 57.2 °F - 55.4 °F 94% 29.90 in 10.0 mi Calm Calm - N/A   Clear
2:15 AM 57.2 °F - 55.4 °F 94% 29.89 in 10.0 mi Calm Calm - N/A   Clear
2:35 AM 57.2 °F - 55.4 °F 94% 29.89 in 10.0 mi Calm Calm - N/A   Clear
2:55 AM 57.2 °F - 55.4 °F 94% 29.89 in 10.0 mi Calm Calm - N/A   Clear
3:15 AM 55.4 °F - 55.4 °F 100% 29.89 in 10.0 mi Calm Calm - N/A   Clear
3:35 AM 55.4 °F - 53.6 °F 94% 29.89 in 10.0 mi Calm Calm - N/A   Clear
3:55 AM 55.4 °F - 55.4 °F 100% 29.88 in 10.0 mi Calm Calm - N/A   Clear
4:15 AM 55.4 °F - 53.6 °F 94% 29.89 in 10.0 mi Calm Calm - N/A   Clear
4:35 AM 55.4 °F - 53.6 °F 94% 29.88 in 10.0 mi Calm Calm - N/A   Clear
4:55 AM 55.4 °F - 53.6 °F 94% 29.89 in 10.0 mi Calm Calm - N/A   Clear
5:15 AM 53.6 °F - 53.6 °F 100% 29.89 in 10.0 mi Calm Calm - N/A   Clear
5:35 AM 55.4 °F - 53.6 °F 94% 29.89 in 10.0 mi Calm Calm - N/A   Clear
5:55 AM 53.6 °F - 53.6 °F 100% 29.89 in 10.0 mi Calm Calm - N/A   Clear
6:15 AM 53.6 °F - 53.6 °F 100% 29.90 in 10.0 mi Calm Calm - N/A   Clear
6:35 AM 53.6 °F - 51.8 °F 94% 29.90 in 10.0 mi Calm Calm - N/A   Clear
6:55 AM 55.4 °F - 53.6 °F 94% 29.90 in 10.0 mi Calm Calm - N/A   Clear
7:15 AM 55.4 °F - 53.6 °F 94% 29.91 in 10.0 mi Calm Calm - N/A   Clear
7:35 AM 59.0 °F - 55.4 °F 88% 29.90 in 10.0 mi Calm Calm - N/A   Clear
7:55 AM 62.6 °F - 55.4 °F 77% 29.91 in 10.0 mi Calm Calm - N/A   Clear
8:15 AM 64.4 °F - 55.4 °F 73% 29.90 in 10.0 mi North - - N/A   Clear
8:35 AM 66.2 °F - 55.4 °F 68% 29.91 in 10.0 mi North - - N/A   Clear
8:55 AM 68.0 °F - 57.2 °F 68% 29.91 in 10.0 mi North - - N/A   Clear
9:15 AM 68.0 °F - 57.2 °F 68% 29.91 in 10.0 mi North - - N/A   Clear
9:35 AM 69.8 °F - 57.2 °F 64% 29.92 in 10.0 mi North - - N/A   Clear
9:55 AM 71.6 °F - 59.0 °F 64% 29.92 in 10.0 mi North - - N/A   Clear
10:15 AM 73.4 °F - 59.0 °F 61% 29.93 in 10.0 mi North - - N/A   Clear
10:35 AM 75.2 °F - 57.2 °F 53% 29.93 in 10.0 mi North - - N/A   Clear
10:55 AM 75.2 °F - 57.2 °F 53% 29.93 in 10.0 mi North - - N/A   Clear
11:15 AM 77.0 °F - 59.0 °F 54% 29.93 in 10.0 mi North - - N/A   Clear
11:35 AM 77.0 °F - 59.0 °F 54% 29.94 in 10.0 mi Calm Calm - N/A   Clear
11:55 AM 77.0 °F - 59.0 °F 54% 29.93 in 10.0 mi Calm Calm - N/A   Clear
12:15 PM 78.8 °F - 60.8 °F 54% 29.92 in 10.0 mi North - - N/A   Clear
12:35 PM 78.8 °F - 59.0 °F 51% 29.93 in 10.0 mi North - - N/A   Clear
12:55 PM 80.6 °F 81.1 °F 59.0 °F 48% 29.92 in 10.0 mi North - - N/A   Clear
1:15 PM 80.6 °F 80.8 °F 57.2 °F 45% 29.91 in 10.0 mi North - - N/A   Scattered Clouds
1:35 PM 80.6 °F 80.8 °F 57.2 °F 45% 29.91 in 10.0 mi North - - N/A   Partly Cloudy
1:55 PM 82.4 °F 82.5 °F 59.0 °F 45% 29.91 in 10.0 mi North - - N/A   Scattered Clouds
2:15 PM 82.4 °F 82.5 °F 59.0 °F 45% 29.90 in 10.0 mi North - - N/A   Mostly Cloudy
2:35 PM 82.4 °F 82.5 °F 59.0 °F 45% 29.90 in 10.0 mi North - - N/A   Mostly Cloudy
2:55 PM 82.4 °F 82.5 °F 59.0 °F 45% 29.90 in 10.0 mi North - - N/A   Mostly Cloudy
3:15 PM 82.4 °F 82.0 °F 57.2 °F 42% 29.90 in 10.0 mi North - - N/A   Mostly Cloudy
3:35 PM 82.4 °F 82.5 °F 59.0 °F 45% 29.90 in 10.0 mi North - - N/A   Mostly Cloudy
3:55 PM 82.4 °F 82.5 °F 59.0 °F 45% 29.90 in 10.0 mi Calm Calm - N/A   Mostly Cloudy
4:15 PM 82.4 °F 82.5 °F 59.0 °F 45% 29.89 in 10.0 mi North - - N/A   Mostly Cloudy
4:35 PM 82.4 °F 82.0 °F 57.2 °F 42% 29.89 in 10.0 mi North - - N/A   Scattered Clouds
4:55 PM 82.4 °F 82.0 °F 57.2 °F 42% 29.89 in 10.0 mi Calm Calm - N/A   Clear
5:15 PM 82.4 °F 82.0 °F 57.2 °F 42% 29.88 in 10.0 mi North - - N/A   Clear
5:35 PM 82.4 °F 82.5 °F 59.0 °F 45% 29.88 in 10.0 mi North - - N/A   Clear
5:55 PM 82.4 °F 82.5 °F 59.0 °F 45% 29.89 in 10.0 mi North - - N/A   Clear
6:35 PM 82.4 °F 82.5 °F 59.0 °F 45% 29.89 in 10.0 mi North - - N/A   Clear
6:55 PM 80.6 °F 81.1 °F 59.0 °F 48% 29.89 in 10.0 mi Calm Calm - N/A   Clear
7:15 PM 78.8 °F - 59.0 °F 51% 29.90 in 10.0 mi Calm Calm - N/A   Clear
7:35 PM 77.0 °F - 62.6 °F 61% 29.89 in 10.0 mi Calm Calm - N/A   Clear
7:55 PM 75.2 °F - 64.4 °F 69% 29.90 in 10.0 mi Calm Calm - N/A   Partly Cloudy
8:15 PM 75.2 °F - 64.4 °F 69% 29.90 in 10.0 mi Calm Calm - N/A   Mostly Cloudy
8:35 PM 75.2 °F - 64.4 °F 69% 29.91 in 10.0 mi Calm Calm - N/A   Mostly Cloudy
8:55 PM 73.4 °F - 64.4 °F 73% 29.91 in 10.0 mi Calm Calm - N/A   Scattered Clouds
9:15 PM 71.6 °F - 64.4 °F 78% 29.92 in 10.0 mi Calm Calm - N/A   Clear
9:35 PM 71.6 °F - 64.4 °F 78% 29.92 in 10.0 mi Calm Calm - N/A   Clear
9:55 PM 71.6 °F - 64.4 °F 78% 29.92 in 10.0 mi North - - N/A   Partly Cloudy
10:55 PM 71.6 °F - 64.4 °F 78% 29.94 in 10.0 mi Calm Calm - N/A   Mostly Cloudy
11:15 PM 71.6 °F - 64.4 °F 78% 29.95 in 10.0 mi Calm Calm - N/A   Mostly Cloudy
11:35 PM 69.8 °F - 64.4 °F 83% 29.95 in 10.0 mi Calm Calm - N/A   Scattered Clouds
11:55 PM 69.8 °F - 64.4 °F 83% 29.95 in 10.0 mi Calm Calm - N/A   Mostly Cloudy